LiveATC.Net - Listen to live air traffic control over the Internet!


ICAO: LFLY  IATA: LYN   Airport: Lyon-Bron Airport
City: Bron
Country: France   Continent: Europe
LFLY METAR Weather: LFLY 271000Z AUTO 21006KT 9999 BKN009 OVC100 07/05 Q1017 TEMPO 18018G28KT BECMG NSC
LFLY Flight Activity (FlightAware)

LFLY Tower
Feed Status: UP   Listeners: 0
Listen in your browser - HTML5 player (in browser, HTML5)
Click here to listen with your own player (launches your MP3 player)
Archive Access: LFLY Tower
FacilityFrequency
Lyon-Bron Tower118.100

Lyon FIS
Feed Status: UP   Listeners: 1
Listen in your browser - HTML5 player (in browser, HTML5)
Click here to listen with your own player (launches your MP3 player)
Archive Access: Lyon FIS
FacilityFrequency
Lyon FIS135.200

NOTICE

Unauthorized use prohibited. See LiveATC.net Terms of Service


Airport/ARTCC Code
Frequency Search
(e.g., 124.400, 128.75)
Site-wide search
 


Browse Feeds
Top 50 Feeds
Coverage Map
Bad Weather Areas

LiveATC FAQ
Offer LiveATC feed
Contact LiveATC.net
Press Inquiries

LiveATC on iPhone
LiveATC on Android

Windows Phone
Windows 8/10

LiveATC Mobile
(Mobile browser)

ATC Audio Archives
Interesting Recordings

LiveATC Forums


Home Page
About LiveATC.net
Make a Donation
Terms of Use
Privacy Policy

Canadian Air Freqs

AIRMETs/SIGMETs

FAA Airport Status
Nat'l Airspace Status
Arrival Demand Charts


Server Software By:
Icecast.org
Liquidsoap